星链-37568(STARLINK-37568)

导读

STARLINK-37568(NORAD编号69492)是美国太空探索技术公司(SpaceX)星链低轨通信星座的成员卫星。该卫星属于星链组网批次,运行于约550公里高度的近地轨道,轨道倾角约43-53度,轨道周期约90-95分钟,承担全球卫星宽带通信任务,可向地面终端提供低时延高速网络接入服务,覆盖民用宽带、航空/海事通信、应急通信等场景。 截至2026年6月,该卫星在轨运行状态正常,是当前星链超7200颗在轨卫星的组成部分,支撑星链在北美、欧洲等已落地地区的商用服务,参与星链网络的链路调度,与同轨道面其他卫星协同实现网络覆盖连续性,单星可支持最高数百Mbps的用户下行速率。

基本信息
目录编号:
69492
目录名称:
STARLINK-37568
国际标识:
2026-131Q
轨道中心:
EARTH
卫星名称:
星链-37568
卫星全名:
星链-37568(STARLINK-37568)
卫星状态:
在轨 (已飞行85 天)
发射日期:
2026-06-11 UTC
国别 :
美国 (US)
星等 :
--
轨道信息
数据来源 国际轨道数据 AOE轨道数据
星历时间 2026-09-04T00:38:49+0800
13小时前
查看轨道信息
2026-09-03T18:00:00+0800
20小时前
查看轨道信息
半长轴 6843.689km 6843.717km
偏心率 0.0001532 0.0001029
轨道倾角 97.284° 97.290°
近地点辐角 125.103° 166.377°
升交点赤经 267.826° 267.550°
平近点角 235.036° 105.852°
近地点 464.503km 464.875km
远地点 466.601km 466.285km
周期 93.906分钟 93.907分钟
每日圈数 15.334421 15.334327
详细信息
固有亮度:
5
最大亮度:
2.5
卫星平台:
Starlink V1.0
覆盖范围:
全球
运营商:
太空探索技术公司
运营商所在国:
美国
制造商(研发单位):
太空探索技术公司
制造商所在国:
美国
使用方式:
暂无
卫星简介
Starlink 计划是 SpaceX 推出的全球卫星互联网项目,通过发射低轨道卫星,为全球尤其是偏远地区提供高速、低延迟的互联网服务。自 2019 年起,Starlink 已部署数千颗卫星,旨在缩小全球数字鸿沟,推动互联网普及。该项目还为军事、航空等行业提供通信支持,带来广泛经济效益。
2D轨道图
3D轨道图
轨道高度分析图
轨道倾角分析图
轨道综合分析图
查看轨道综合分析图
交会数据列表
事件ID 空间交会对象 最接近时刻(TCA) 交会距离 交会风险概率(CRP) 交会风险指数(CRI) 操作
CDM_260905-080004-791606-949221
2026-09-05T
08:00:41+0000
0.986 km
远距离
2.690407E-5 中风险 0.64
CDM_260904-194905-227006-949221
2026-09-04T
19:49:14+0000
2.358 km
极远距离
1.786729E-6 低风险 0.4
CDM_260903-031805-316306-949221
2026-09-03T
03:18:55+0000
2.981 km
极远距离
1.347303E-6 低风险 0.38
CDM_260903-193305-972506-949221
2026-09-03T
19:33:21+0000
2.954 km
极远距离
1.281178E-6 低风险 0.37